Regional Weather Roundup
Issued by NWS

Home | Current Version | Previous Version | Text Only | Print | Product List | Glossary On
Versions: 1 2 3 4 5 6 7 8 9 10 11 12 13 14 15 16 17 18 19 20 21 22 23 24 25 26 27 28 29 30 31 32 33 34 35 36 37 38 39 40 41 42 43 44 45 46 47 48 49 50
000
ASUS43 KOAX 232210
RWRNE

WEATHER ROUNDUP FOR NEBRASKA
NATIONAL WEATHER SERVICE OMAHA NE
400 PM CST TUE JAN 23 2018

NOTES: SATELLITE DATA IS BEING USED TO AUGMENT CLOUD COVER ABOVE
       12000 FEET.
       "FAIR" INDICATES FEW OR NO CLOUDS BELOW 12,000 FEET WITH NO
       SIGNIFICANT WEATHER AND/OR OBSTRUCTIONS TO VISIBILITY.


NEZ001>004-019>022-054>056-232300-
NEBRASKA PANHANDLE

CITY           SKY/WX    TMP DP  RH WIND       PRES   REMARKS
SCOTTSBLUFF    SUNNY     34  21  59 NW15      30.23R WCI  24
ALLIANCE       SUNNY     32  22  66 W16       30.19R WCI  21
CHADRON        SUNNY     32  21  64 SW17      30.20S WCI  21
GORDON         FAIR      33  22  64 W14       30.16R WCI  23
KIMBALL        SUNNY     33  18  55 NW17G23   30.22R WCI  22
SIDNEY         SUNNY     35  21  56 NW21      30.22R WCI  24
$$

NEZ057>060-069>072-079>082-232300-
SOUTHWEST NEBRASKA

CITY           SKY/WX    TMP DP  RH WIND       PRES   REMARKS
NORTH PLATTE   SUNNY     37  25  61 W13       30.20R WCI  29
IMPERIAL       MOSUNNY   37  25  61 NW10      30.22R WCI  30
LEXINGTON      SUNNY     36  30  78 W6        30.20S WCI  31
MCCOOK         SUNNY     36  25  64 W13       30.23R WCI  27
OGALLALA       MOSUNNY   38  25  59 NW14      30.22R WCI  29
$$

NEZ005>010-023>029-035>040-094-232300-
NORTH CENTRAL NEBRASKA

CITY           SKY/WX    TMP DP  RH WIND       PRES   REMARKS
VALENTINE      SUNNY     39  25  57 W13       30.15R WCI  31
AINSWORTH      MOSUNNY   38  29  71 NW12      30.15R WCI  30
BROKEN BOW     SUNNY     39  27  62 W14       30.16R WCI  31
O`NEILL        MOSUNNY   37  29  72 W10       30.13R WCI  30
ORD            SUNNY     40  28  62 W13       30.15R WCI  32
THEDFORD       SUNNY     38  28  66 W10       30.17S WCI  31
$$

NEZ041-046>049-061>064-073>077-083>087-232300-
SOUTH CENTRAL NEBRASKA

CITY           SKY/WX    TMP DP  RH WIND       PRES   REMARKS
GRAND ISLAND   CLOUDY    35  28  75 W9        30.17S WCI  28
AURORA         CLOUDY    35  28  73 W8        30.18R WCI  29
HASTINGS       PTSUNNY   37  29  72 W7        30.18S WCI  32
HEBRON         MOSUNNY   38  28  67 NW10      30.21R WCI  30
HOLDREGE       MOSUNNY   37  32  79 W12       30.20R WCI  30
KEARNEY        CLOUDY    36  30  79 W12       30.20R WCI  28
YORK           SUNNY     34  28  80 NW8       30.18S WCI  27
$$

NEZ011>018-030>034-042>045-232300-
NORTHEAST NEBRASKA

CITY           SKY/WX    TMP DP  RH WIND       PRES   REMARKS
NORFOLK        CLOUDY    35  22  58 SW5       30.14S WCI  31
ALBION         CLOUDY    35  28  75 CALM      30.14S
BLAIR          CLOUDY    26  23  89 W9        30.17S WCI  16
COLUMBUS       CLOUDY    30  26  85 SW7       30.18R WCI  23
FREMONT        CLOUDY    25  22  89 CALM      30.19S
TEKAMAH        CLOUDY    26  26 100 SW5       30.19R WCI  20
WAYNE          CLOUDY    26  25  96 SW7       30.15S WCI  19
$$

NEZ050>053-065>068-078-088>093-232300-
SOUTHEAST NEBRASKA

CITY           SKY/WX    TMP DP  RH WIND       PRES   REMARKS
LINCOLN        SUNNY     29  22  75 W6        30.21R WCI  23
OMAHA EPPLEY   CLOUDY    26  21  81 W9        30.20R WCI  17
BEATRICE       SUNNY     32  26  76 W9        30.20S WCI  25
FALLS CITY     SUNNY     30  24  78 W8        30.20S WCI  22
NEBRASKA CITY  CLOUDY    29  27  92 W7        30.20R WCI  22
PLATTSMOUTH    CLOUDY    26  23  87 W7        30.20R WCI  19
$$

NEZ044-045-051>053-067-232300-
OMAHA AREA

CITY           SKY/WX    TMP DP  RH WIND       PRES   REMARKS
OMAHA EPPLEY   CLOUDY    26  21  81 W9        30.20R WCI  17
BLAIR          CLOUDY    26  23  89 W9        30.17S WCI  16
FREMONT        CLOUDY    25  22  89 CALM      30.19S
MILLARD        CLOUDY    27  23  84 W7        30.20R WCI  19
OFFUTT AFB     CLOUDY    26  22  83 W8        30.20R WCI  18
PLATTSMOUTH    CLOUDY    26  23  87 W7        30.20R WCI  19
WAHOO          FAIR      26  22  83 SW3       30.19S FOG
$$



USA.gov is the U.S. government's official web portal to all federal, state and local government web resources and services.